This demonstration page uses our WeatherBlox Daily Observations layout. Learn more.

Left ArrowRight Arrow

Hourly Observations for March 17, 2020

Temp ( °F °C ) Dew Point ( °F °C ) Humidity (%) Winds ( mph kmh ) Pressure ( in mb ) Visibility ( mi km ) Precip ( " mm )
12:53 am 00:53 Clear 4 -15.6 1 -17.2 88 88 E 6 9 30.21 1023 10 16 N/A
1:53 am 01:53 Clear 2 -16.7 N/A 91 91 E 6 9 30.17 1022 10 16 N/A
2:53 am 02:53 Clear 1 -17.2 -2 -18.9 87 87 E 7 11 30.14 1021 10 16 N/A
3:53 am 03:53 Clear 1 -17.2 -3 -19.4 83 83 E 7 11 30.10 1019 10 16 N/A
4:53 am 04:53 Clear 3 -16.1 N/A 87 87 ENE 5 7 30.05 1018 10 16 N/A
5:53 am 05:53 Clear -1 -18.3 -5 -20.6 82 82 ENE 3 6 30.05 1018 10 16 N/A
6:53 am 06:53 Clear -3 -19.4 -7 -21.7 82 82 N N/A 30.04 1017 10 16 N/A
7:53 am 07:53 Partly Cloudy with Mist and Fog -2 -18.9 -6 -21.1 83 83 SSE 3 6 30.03 1017 2 3 N/A
8:02 am 08:02 Sunny with Mist and Fog -4 -20 -7 -21.7 86 86 N N/A 30.20 1023 5 8 N/A
8:53 am 08:53 Sunny -1 -18.3 -4 -20 87 87 N N/A 30.03 1017 10 16 N/A
9:53 am 09:53 Sunny 5 -15 N/A 79 79 NNW 5 7 30.04 1017 10 16 N/A
10:53 am 10:53 Sunny 11 -11.7 5 -15 77 77 N N/A 30.03 1017 10 16 N/A
11:53 am 11:53 Sunny 12 -11.1 8 -13.3 84 84 SSW 3 6 30.03 1017 10 16 N/A
12:53 pm 12:53 Sunny 18 -7.8 12 -11.1 77 77 WSW 10 17 30.02 1017 10 16 N/A
1:53 pm 13:53 Sunny 23 -5 16 -8.9 74 74 WSW 13 20 30.02 1017 10 16 N/A
2:53 pm 14:53 Sunny 24 -4.4 14 -10 65 65 W 12 19 30.04 1017 10 16 N/A
3:53 pm 15:53 Sunny 25 -3.9 16 -8.9 69 69 W 7 11 30.05 1018 10 16 N/A
4:53 pm 16:53 Mostly Sunny 28 -2.2 18 -7.8 66 66 W 5 7 30.07 1018 10 16 N/A
5:14 pm 17:14 Mostly Cloudy 28 -2.2 19 -7.2 69 69 NW 14 22 30.08 1019 10 16 N/A
5:30 pm 17:30 Partly Cloudy 27 -3 19 -7 74 74 WNW 16 26 30.09 1019 10 16 N/A
5:53 pm 17:53 Mostly Cloudy 26 -3.3 19 -7.2 75 75 WNW 17 28 30.12 1020 10 16 N/A
6:04 pm 18:04 Partly Cloudy 25 -4 18 -8 74 74 WNW 16 26 30.12 1020 10 16 N/A
6:14 pm 18:14 Mostly Cloudy 23 -5 17 -8.3 78 78 WNW 17 28 30.14 1021 10 16 N/A
6:25 pm 18:25 Mostly Sunny 23 -5 17 -8.3 78 78 WNW 13 20 30.14 1021 10 16 N/A
6:53 pm 18:53 Sunny 21 -6.1 16 -8.9 81 81 WNW 9 15 30.16 1021 10 16 N/A
7:53 pm 19:53 Mostly Clear 21 -6.1 16 -8.9 81 81 NNE 3 6 30.18 1022 10 16 N/A
8:30 pm 20:30 Mostly Cloudy 18 -7.8 14 -10 84 84 SW 7 11 30.24 1024 10 16 N/A
8:53 pm 20:53 Cloudy 20 -6.7 15 -9.4 81 81 W 6 9 30.21 1023 10 16 N/A
9:53 pm 21:53 Cloudy 19 -7.2 14 -10 81 81 W 7 11 30.22 1023 10 16 N/A
10:53 pm 22:53 Cloudy 17 -8.3 13 -10.6 84 84 NW 7 11 30.23 1024 10 16 N/A
11:53 pm 23:53 Cloudy 17 -8.3 13 -10.6 84 84 N N/A 30.24 1024 10 16 N/A

Powered by AerisWeather